Location: Alsip
(41.6689°N, 87.7387°W)
Time: 09:11:58
(UTC+00:00)

GEOS 3 Rocket - Pass Details

Date: 29 October 2020
Orbit: 770 x 850 km, 115.0° (Epoch: 03 December)

Event Time Altitude Azimuth Distance (km) Brightness Sun altitude
Exits shadow 01:26:02 67° 326° (NNW) 905 3.8 -29.7°
Drops below altitude 10° 01:30:40 10° 325° (NW) 2,469 6.6 -30.5°
Sets 01:33:01 0° 325° (NW) 3,414 7.4 -31.0°
